BRASILSAT B3            
1 25152U 98006A   19260.73576028 -.00000024  00000-0  00000+0 0  9990
2 25152   5.6216  65.1796 0000889  16.8734  17.2336  0.99219169 79177
INMARSAT 3-F5           
1 25153U 98006B   19260.47012692 -.00000291  00000-0  00000+0 0  9990
2 25153   4.2334  71.5116 0004613 106.7970 293.0984  1.00271352 79179